EW1760 Weather Reports


time (UTC)temp
C
wind
direction
speed
KPH
gust
KPH
rain 1hr
cm
rain 24hr
cm
rain mn
cm
humidity
%
barometer
mb
20260507101525 14 315 4.8 12.9 0.00 0.13 0.03 86 1010.8
20260507101026 14 32 6.4 17.7 0.00 0.13 0.03 85 1010.8
20260507100524 14 344 6.4 17.7 0.00 0.13 0.03 85 1010.9
20260507100033 14 351 6.4 20.9 0.00 0.13 0.03 85 1011.0
20260507095527 15 360 6.4 20.9 0.00 0.13 0.03 86 1011.1
20260507095022 15 16 8.0 17.7 0.00 0.13 0.03 85 1010.5
20260507094522 15 337 4.8 17.7 0.00 0.13 0.03 86 1010.4
20260507094020 15 310 6.4 16.1 0.00 0.13 0.03 86 1010.6
20260507093520 15 360 6.4 16.1 0.00 0.13 0.03 86 1010.5
20260507093020 15 35 6.4 14.5 0.00 0.13 0.03 85 1010.4
20260507092521 15 5 8.0 14.5 0.00 0.13 0.03 86 1010.4
20260507092018 15 11 3.2 19.3 0.00 0.13 0.03 85 1010.3
20260507091518 15 34 9.7 22.5 0.00 0.13 0.03 84 1010.4
20260507091018 15 17 8.0 22.5 0.00 0.13 0.03 84 1010.3
20260507090518 15 332 9.7 20.9 0.00 0.13 0.03 84 1010.3
20260507090022 15 324 12.9 20.9 0.00 0.13 0.03 85 1010.5
20260507085516 15 360 9.7 19.3 0.00 0.13 0.03 85 1010.3
20260507085015 15 360 9.7 19.3 0.00 0.13 0.03 85 1010.0
20260507084516 15 313 6.4 19.3 0.00 0.13 0.03 85 1010.1
20260507084015 15 323 9.7 24.1 0.00 0.13 0.03 85 1010.3
20260507083516 15 360 8.0 24.1 0.00 0.13 0.03 86 1010.2
20260507083014 15 350 12.9 22.5 0.00 0.13 0.03 87 1010.2
20260507082515 15 348 11.3 20.9 0.00 0.13 0.03 88 1010.0
20260507082013 15 355 8.0 14.5 0.00 0.13 0.03 87 1009.8
20260507081527 15 5 4.8 14.5 0.00 0.13 0.03 87 1009.7
20260507081012 15 346 6.4 14.5 0.00 0.13 0.03 88 1009.5
20260507080512 15 321 3.2 12.9 0.00 0.13 0.03 89 1009.4
20260507080011 15 5 1.6 17.7 0.00 0.13 0.03 90 1009.4
20260507075514 15 29 3.2 17.7 0.00 0.13 0.03 90 1009.3
20260507075010 15 313 6.4 22.5 0.00 0.13 0.03 90 1009.6
20260507074522 16 320 8.0 32.2 0.00 0.13 0.03 91 1009.8
20260507074008 16 339 20.9 32.2 0.00 0.13 0.03 91 1010.3
20260507073507 16 332 20.9 32.2 0.00 0.13 0.03 91 1009.9
20260507073006 16 346 24.1 32.2 0.00 0.13 0.03 91 1009.7
20260507072504 16 336 24.1 32.2 0.00 0.13 0.03 91 1009.7
20260507072003 16 345 22.5 30.6 0.00 0.13 0.03 91 1009.5
20260507071504 16 332 20.9 30.6 0.00 0.13 0.03 91 1009.6
20260507071002 16 348 22.5 30.6 0.00 0.13 0.03 91 1009.3
20260507070600 16 332 20.9 29.0 0.00 0.13 0.03 92 1009.3
20260507070058 16 340 16.1 24.1 0.00 0.13 0.03 92 1009.0
20260507065557 16 355 9.7 19.3 0.00 0.13 0.03 92 1009.0
20260507065057 17 355 9.7 19.3 0.00 0.13 0.03 91 1008.7
20260507064556 17 351 4.8 19.3 0.00 0.13 0.03 91 1008.4
20260507064055 17 355 8.0 19.3 0.00 0.13 0.03 91 1008.4
20260507063554 17 360 4.8 11.3 0.00 0.13 0.03 91 1008.1
20260507063056 17 28 3.2 11.3 0.00 0.13 0.03 91 1007.9
20260507062554 17 355 4.8 14.5 0.00 0.13 0.03 90 1008.0
20260507062052 17 350 8.0 14.5 0.00 0.13 0.03 91 1008.1
20260507061551 17 42 6.4 14.5 0.00 0.13 0.03 91 1008.1
20260507061050 17 10 8.0 14.5 0.03 0.13 0.03 91 1008.3
20260507060548 17 355 6.4 12.9 0.03 0.13 0.03 91 1008.3
20260507060048 18 350 3.2 14.5 0.03 0.13 0.03 92 1008.5
20260507055547 18 346 4.8 14.5 0.03 0.13 0.03 91 1008.6
20260507055049 18 355 4.8 17.7 0.03 0.13 0.03 91 1008.5
20260507054611 18 49 6.4 17.7 0.03 0.13 0.03 91 1008.5
20260507054043 18 336 11.3 16.1 0.03 0.13 0.03 92 1008.7
20260507053545 18 345 9.7 14.5 0.03 0.13 0.03 92 1008.8
20260507053049 18 5 6.4 9.7 0.03 0.13 0.03 92 1008.6
20260507052542 18 340 4.8 8.0 0.03 0.13 0.03 92 1008.8
20260507052041 18 355 3.2 6.4 0.03 0.13 0.03 92 1008.8
20260507051541 18 355 1.6 3.2 0.03 0.13 0.03 92 1008.8
20260507051043 18 355 1.6 3.2 0.00 0.10 0.00 91 1008.8
20260507050540 18 355 0.0 3.2 0.00 0.10 0.00 91 1009.0
20260507050041 18 355 0.0 3.2 0.00 0.10 0.00 91 1008.9
20260507045539 18 355 0.0 8.0 0.00 0.10 0.00 91 1008.8
20260507045038 18 355 3.2 8.0 0.00 0.10 0.00 91 1008.8
20260507044546 18 348 3.2 6.4 0.00 0.10 0.00 90 1008.9
20260507044040 18 360 0.0 3.2 0.00 0.10 0.00 90 1008.8
20260507043537 18 360 0.0 1.6 0.00 0.10 0.00 90 1008.8
20260507043041 18 360 0.0 0.0 0.00 0.10 0.00 90 1008.8
20260507042540 18 360 0.0 0.0 0.00 0.10 0.00 90 1008.8
20260507042036 18 360 0.0 1.6 0.00 0.10 0.00 90 1008.7
20260507041540 18 360 0.0 1.6 0.00 0.10 0.00 90 1008.8
20260507041035 18 360 0.0 1.6 0.00 0.10 0.00 90 1008.8
20260507040535 18 360 0.0 3.2 0.00 0.10 0.00 90 1008.8
20260507040036 18 360 0.0 3.2 0.00 0.10 0.10 90 1008.7
20260507035534 19 360 0.0 3.2 0.00 0.10 0.10 90 1008.7
20260507035034 19 360 0.0 6.4 0.00 0.10 0.10 90 1008.8
20260507034533 19 360 0.0 6.4 0.00 0.10 0.10 89 1008.9
20260507034033 19 355 4.8 8.0 0.00 0.10 0.10 89 1009.1
20260507033533 19 351 4.8 8.0 0.00 0.10 0.10 89 1009.0
20260507033034 19 319 3.2 6.4 0.00 0.10 0.10 89 1009.1
20260507032532 19 148 0.0 4.8 0.00 0.10 0.10 88 1008.9
20260507032032 19 148 1.6 4.8 0.00 0.10 0.10 88 1008.5
20260507031532 19 148 3.2 4.8 0.00 0.10 0.10 87 1008.5
20260507031032 20 146 3.2 4.8 0.00 0.10 0.10 87 1008.2
20260507030532 20 146 3.2 6.4 0.00 0.10 0.10 86 1008.3
20260507030037 20 126 3.2 6.4 0.00 0.10 0.10 86 1008.2
20260507025531 20 131 3.2 6.4 0.00 0.10 0.10 86 1008.2
20260507025032 20 121 3.2 6.4 0.00 0.10 0.10 86 1008.0
20260507024536 20 173 0.0 3.2 0.00 0.10 0.10 86 1008.2
20260507024031 20 173 0.0 3.2 0.00 0.10 0.10 86 1008.3
20260507023533 19 173 0.0 3.2 0.00 0.10 0.10 87 1008.3
20260507023033 19 191 0.0 1.6 0.00 0.10 0.10 87 1008.3
20260507022535 19 221 0.0 1.6 0.00 0.10 0.10 87 1008.5
20260507022032 19 221 0.0 1.6 0.00 0.10 0.10 87 1008.6
20260507021531 19 231 0.0 3.2 0.00 0.10 0.10 87 1008.7
20260507021030 19 231 0.0 4.8 0.00 0.10 0.10 87 1008.9
20260507020530 19 231 1.6 4.8 0.00 0.10 0.10 87 1009.0
20260507020031 19 188 0.0 1.6 0.00 0.10 0.10 87 1009.0
20260507015532 20 188 0.0 3.2 0.00 0.10 0.10 86 1008.9
20260507015030 20 188 0.0 3.2 0.00 0.10 0.10 86 1008.9
20260507014543 20 215 0.0 3.2 0.00 0.10 0.10 86 1008.9
20260507014030 20 212 0.0 3.2 0.00 0.10 0.10 85 1008.8
20260507013529 20 180 0.0 1.6 0.00 0.10 0.10 85 1008.7
20260507013029 20 180 0.0 1.6 0.00 0.10 0.10 85 1008.6
20260507012529 20 180 0.0 3.2 0.00 0.10 0.10 85 1008.5
20260507012031 20 180 1.6 4.8 0.00 0.10 0.10 85 1008.6
20260507011532 20 155 1.6 6.4 0.00 0.10 0.10 86 1008.5
20260507011030 20 148 1.6 8.0 0.00 0.10 0.10 86 1008.4
20260507010528 20 200 4.8 8.0 0.00 0.10 0.10 86 1008.7
20260507010032 20 197 3.2 8.0 0.00 0.10 0.10 86 1008.7
20260507005527 20 213 1.6 4.8 0.00 0.10 0.10 86 1008.7
20260507005029 20 182 3.2 4.8 0.00 0.10 0.10 86 1008.6
20260507004528 20 192 3.2 6.4 0.00 0.10 0.10 86 1008.6
20260507004027 20 199 3.2 6.4 0.00 0.10 0.10 86 1008.6
20260507003526 20 168 1.6 4.8 0.00 0.10 0.10 87 1008.6
20260507003027 20 171 1.6 3.2 0.00 0.10 0.10 87 1008.6
20260507002527 20 158 1.6 4.8 0.00 0.10 0.10 88 1008.6
20260507002026 20 173 1.6 4.8 0.00 0.10 0.10 88 1008.5
20260507001528 20 194 1.6 4.8 0.00 0.10 0.10 87 1008.6
20260507001026 20 179 1.6 8.0 0.00 0.10 0.10 87 1008.5
20260507000526 20 173 3.2 8.0 0.00 0.10 0.10 87 1008.4
20260507000035 20 179 3.2 6.4 0.00 0.10 0.10 87 1008.3
20260506235526 20 182 4.8 8.0 0.00 0.10 0.10 87 1008.1
20260506235026 20 184 4.8 8.0 0.00 0.10 0.10 87 1008.1
20260506234526 20 166 3.2 9.7 0.00 0.10 0.10 87 1008.2
20260506234025 20 189 6.4 9.7 0.00 0.10 0.10 87 1008.2
20260506233526 20 182 3.2 12.9 0.00 0.10 0.10 87 1008.2
20260506233026 20 211 6.4 12.9 0.00 0.10 0.10 87 1008.3
20260506232525 20 175 3.2 6.4 0.00 0.10 0.10 87 1008.2
20260506232024 20 177 3.2 6.4 0.00 0.10 0.10 87 1008.1
20260506231524 20 217 1.6 8.0 0.00 0.10 0.10 86 1008.2
20260506231024 20 225 4.8 11.3 0.00 0.10 0.10 86 1008.2
20260506230524 20 205 4.8 12.9 0.00 0.10 0.10 86 1008.1
20260506230027 20 200 8.0 12.9 0.00 0.10 0.10 86 1008.1
20260506225527 20 201 9.7 12.9 0.00 0.10 0.10 85 1008.0
20260506225024 20 186 9.7 14.5 0.00 0.10 0.10 85 1008.0
20260506224526 20 197 9.7 17.7 0.00 0.10 0.10 85 1008.1
20260506224027 20 184 11.3 19.3 0.00 0.10 0.10 84 1008.0
20260506223523 20 191 12.9 25.7 0.00 0.10 0.10 84 1007.9
20260506223023 20 200 17.7 25.7 0.00 0.10 0.10 84 1007.9
20260506222523 20 206 14.5 22.5 0.00 0.10 0.10 85 1007.9
20260506222025 20 202 12.9 29.0 0.00 0.10 0.10 84 1007.9
20260506221522 20 206 17.7 29.0 0.00 0.10 0.10 84 1007.9
20260506221026 20 205 16.1 24.1 0.00 0.10 0.10 85 1007.8
20260506220521 20 202 16.1 24.1 0.00 0.10 0.10 85 1008.0
20260506220024 20 201 16.1 20.9 0.00 0.10 0.10 85 1008.1
20260506215525 20 193 14.5 20.9 0.00 0.10 0.10 85 1008.1
20260506215025 20 209 12.9 19.3 0.00 0.10 0.10 86 1008.2
20260506214521 20 200 11.3 19.3 0.00 0.10 0.10 85 1008.3
20260506214019 20 208 11.3 19.3 0.00 0.10 0.10 85 1008.3
20260506213520 20 214 11.3 19.3 0.00 0.10 0.10 86 1008.4
20260506213020 20 225 11.3 19.3 0.00 0.10 0.10 86 1008.4
20260506212520 20 217 11.3 19.3 0.00 0.10 0.10 86 1008.4
20260506212019 20 214 11.3 19.3 0.00 0.10 0.10 86 1008.3
20260506211520 20 217 11.3 19.3 0.00 0.10 0.10 86 1008.4
20260506211018 20 215 11.3 16.1 0.00 0.10 0.10 86 1008.3
20260506210520 19 216 11.3 17.7 0.00 0.10 0.10 86 1008.3
20260506210017 19 199 12.9 19.3 0.00 0.10 0.10 86 1008.2
20260506205519 19 206 11.3 19.3 0.00 0.10 0.10 86 1008.1
20260506205017 19 211 11.3 19.3 0.00 0.10 0.10 86 1008.2
20260506204523 19 221 12.9 19.3 0.00 0.10 0.10 86 1008.1
20260506204015 19 202 11.3 19.3 0.00 0.10 0.10 86 1008.3
20260506203518 20 207 12.9 19.3 0.00 0.10 0.10 85 1008.2
20260506203017 19 201 12.9 20.9 0.00 0.10 0.10 86 1008.2
20260506202515 19 201 12.9 19.3 0.00 0.10 0.10 86 1008.2
20260506202014 19 186 11.3 22.5 0.00 0.10 0.10 86 1008.1
20260506201516 19 219 12.9 22.5 0.00 0.10 0.10 85 1008.2
20260506201013 19 211 12.9 22.5 0.00 0.10 0.10 85 1008.3
20260506200517 19 217 14.5 20.9 0.00 0.10 0.10 86 1008.2
20260506200013 19 196 12.9 19.3 0.00 0.10 0.10 86 1008.4
20260506195512 19 223 12.9 17.7 0.00 0.10 0.10 86 1008.3
20260506195013 19 207 14.5 20.9 0.00 0.10 0.10 86 1008.4
20260506194516 19 226 11.3 20.9 0.00 0.10 0.10 86 1008.9
20260506194011 19 214 14.5 22.5 0.00 0.10 0.10 86 1008.9
20260506193511 19 211 14.5 22.5 0.00 0.10 0.10 86 1008.7
20260506193010 19 205 11.3 20.9 0.00 0.10 0.10 86 1008.8
20260506192514 19 219 14.5 22.5 0.00 0.10 0.10 86 1008.9
20260506192012 19 209 17.7 22.5 0.00 0.10 0.10 86 1008.8
20260506191509 19 216 11.3 20.9 0.00 0.10 0.10 86 1008.9
20260506191009 19 198 11.3 20.9 0.00 0.10 0.10 86 1009.0
20260506190508 19 223 12.9 22.5 0.00 0.10 0.10 86 1009.1
20260506190008 19 219 14.5 22.5 0.00 0.10 0.10 86 1009.3
20260506185507 19 211 14.5 22.5 0.00 0.10 0.10 86 1009.1
20260506185008 19 211 12.9 27.4 0.00 0.10 0.10 86 1009.2
20260506184507 19 204 14.5 27.4 0.00 0.10 0.10 86 1009.3
20260506184006 19 207 11.3 19.3 0.00 0.10 0.10 86 1009.3
20260506183508 19 223 12.9 19.3 0.00 0.10 0.10 86 1009.5
20260506183006 19 213 12.9 25.7 0.00 0.10 0.10 86 1009.6
20260506182505 19 212 17.7 25.7 0.00 0.10 0.10 86 1009.7
20260506182004 19 209 12.9 24.1 0.00 0.10 0.10 86 1009.6
20260506181504 18 200 14.5 24.1 0.00 0.10 0.10 86 1009.6
20260506181005 19 205 14.5 24.1 0.00 0.10 0.10 86 1009.4
20260506180506 19 194 16.1 27.4 0.00 0.10 0.10 86 1009.4
20260506180002 18 199 19.3 27.4 0.00 0.10 0.10 86 1009.6
20260506175502 18 211 14.5 19.3 0.00 0.10 0.10 86 1009.7
20260506175000 18 192 14.5 19.3 0.00 0.10 0.10 86 1009.8
20260506174602 18 200 12.9 20.9 0.00 0.10 0.10 87 1009.8
20260506174102 18 189 12.9 20.9 0.00 0.10 0.10 87 1009.9
20260506173601 18 201 14.5 22.5 0.00 0.10 0.10 87 1010.0
20260506173106 18 204 16.1 22.5 0.00 0.10 0.10 87 1009.9
20260506172559 18 196 14.5 20.9 0.00 0.10 0.10 88 1010.0
20260506172058 18 192 16.1 22.5 0.00 0.10 0.10 88 1009.9
20260506171603 18 198 16.1 25.7 0.00 0.10 0.10 87 1009.9
20260506171058 18 194 20.9 25.7 0.00 0.10 0.10 87 1009.9
20260506170557 18 195 20.9 25.7 0.00 0.10 0.10 88 1009.9
20260506170106 18 181 16.1 25.7 0.00 0.10 0.10 88 1010.1
20260506165558 18 190 16.1 24.1 0.00 0.10 0.10 88 1010.0
20260506165056 17 195 16.1 24.1 0.00 0.10 0.10 88 1010.2
20260506164606 17 216 16.1 22.5 0.03 0.10 0.10 88 1010.4
20260506164058 17 201 16.1 25.7 0.03 0.10 0.10 89 1010.5
20260506163559 17 190 19.3 29.0 0.03 0.10 0.10 89 1010.3
20260506163116 17 184 19.3 30.6 0.05 0.10 0.10 89 1010.3
20260506162555 17 182 20.9 30.6 0.05 0.10 0.10 89 1010.2
20260506162054 17 190 19.3 25.7 0.05 0.10 0.10 89 1010.3
20260506161601 17 168 19.3 27.4 0.05 0.10 0.10 89 1010.4
20260506161053 17 171 20.9 27.4 0.05 0.10 0.10 89 1010.5
20260506160553 17 184 19.3 25.7 0.08 0.10 0.10 88 1010.6
20260506160052 17 182 20.9 29.0 0.08 0.10 0.10 88 1010.7
20260506155556 17 189 20.9 29.0 0.08 0.10 0.10 87 1010.6
20260506155050 17 190 19.3 29.0 0.08 0.10 0.10 87 1010.7
20260506154608 18 186 19.3 29.0 0.05 0.08 0.08 87 1010.9
20260506154050 18 192 17.7 29.0 0.05 0.08 0.08 87 1010.9
20260506153550 18 187 19.3 29.0 0.05 0.08 0.08 86 1010.9
20260506153057 18 186 24.1 30.6 0.03 0.05 0.05 85 1011.0
20260506152548 18 198 22.5 30.6 0.03 0.05 0.05 85 1011.0
20260506152047 18 193 22.5 29.0 0.03 0.05 0.05 84 1011.2
20260506151548 18 187 20.9 32.2 0.03 0.05 0.05 84 1011.2
20260506151046 18 192 22.5 32.2 0.03 0.05 0.05 83 1011.3
20260506150546 18 191 24.1 30.6 0.03 0.03 0.03 82 1011.2
20260506150046 18 199 24.1 27.4 0.03 0.03 0.03 82 1011.3
20260506145546 18 188 22.5 29.0 0.03 0.03 0.03 81 1011.3
20260506145045 19 194 19.3 29.0 0.03 0.03 0.03 81 1011.4
20260506144546 19 198 16.1 29.0 0.03 0.03 0.03 81 1011.2
20260506144045 19 193 19.3 29.0 0.03 0.03 0.03 80 1011.1
20260506143546 18 184 19.3 29.0 0.03 0.03 0.03 80 1011.0
20260506143100 19 185 16.1 22.5 0.03 0.03 0.03 80 1011.0
20260506142545 18 205 11.3 22.5 0.03 0.03 0.03 81 1011.1
20260506142044 18 178 14.5 22.5 0.03 0.03 0.03 81 1011.0
20260506141545 18 176 11.3 24.1 0.03 0.03 0.03 82 1011.0
20260506141048 18 197 12.9 24.1 0.03 0.03 0.03 81 1011.0
20260506140544 18 165 11.3 22.5 0.00 0.00 0.00 82 1011.0
20260506140045 18 198 11.3 22.5 0.00 0.00 0.00 81 1011.1
20260506135544 19 202 17.7 24.1 0.00 0.00 0.00 80 1011.2
20260506135045 19 186 16.1 24.1 0.00 0.00 0.00 79 1010.9
20260506134543 19 179 14.5 24.1 0.00 0.00 0.00 79 1011.0
20260506134044 19 191 17.7 22.5 0.00 0.00 0.00 79 1011.3
20260506133544 18 195 17.7 22.5 0.00 0.00 0.00 80 1011.2
20260506133043 18 196 14.5 24.1 0.00 0.00 0.00 80 1011.2
20260506132542 18 192 16.1 25.7 0.00 0.00 0.00 80 1011.2
20260506132042 18 192 20.9 25.7 0.00 0.00 0.00 79 1011.1
20260506131542 18 179 16.1 24.1 0.00 0.00 0.00 80 1011.0
20260506131042 18 190 14.5 24.1 0.00 0.00 0.00 81 1011.0
20260506130542 18 178 16.1 24.1 0.00 0.00 0.00 80 1010.9
20260506130041 18 190 14.5 27.4 0.00 0.00 0.00 80 1010.9
20260506125546 18 184 20.9 27.4 0.00 0.00 0.00 80 1010.9
20260506125045 18 190 14.5 24.1 0.00 0.00 0.00 81 1010.9
20260506124541 18 182 14.5 25.7 0.00 0.00 0.00 81 1010.9
20260506124041 18 186 14.5 25.7 0.00 0.00 0.00 81 1011.0
20260506123541 18 181 14.5 24.1 0.00 0.00 0.00 81 1010.9
20260506123041 18 188 16.1 24.1 0.00 0.00 0.00 81 1010.9
20260506122541 18 182 17.7 27.4 0.00 0.00 0.00 79 1010.9
20260506122040 18 176 20.9 27.4 0.00 0.00 0.00 79 1010.9
20260506121543 18 173 19.3 27.4 0.00 0.00 0.00 80 1011.0
20260506121039 18 166 17.7 27.4 0.00 0.00 0.00 80 1011.0
20260506120539 18 183 19.3 27.4 0.00 0.00 0.00 79 1011.1
20260506120039 18 180 19.3 27.4 0.00 0.00 0.00 80 1011.2
20260506115539 18 184 17.7 25.7 0.00 0.00 0.00 80 1011.2
20260506115038 18 163 16.1 24.1 0.00 0.00 0.00 80 1011.2
20260506114549 18 177 16.1 24.1 0.00 0.00 0.00 80 1011.2
20260506114038 18 184 16.1 24.1 0.00 0.00 0.00 80 1011.2
20260506113541 18 177 19.3 24.1 0.00 0.00 0.00 80 1011.2
20260506113038 18 180 16.1 24.1 0.00 0.00 0.00 80 1011.1
20260506112538 18 181 14.5 19.3 0.00 0.00 0.00 81 1011.1
20260506112038 18 191 16.1 24.1 0.00 0.00 0.00 80 1011.2
20260506111539 18 192 16.1 24.1 0.00 0.00 0.00 80 1011.2
20260506111036 18 172 17.7 27.4 0.00 0.00 0.00 80 1011.0
20260506110536 18 194 19.3 27.4 0.00 0.00 0.00 79 1010.9
20260506110036 18 186 17.7 25.7 0.00 0.00 0.00 79 1011.0
20260506105535 18 199 19.3 25.7 0.00 0.00 0.00 79 1011.0
20260506105036 18 192 17.7 24.1 0.00 0.00 0.00 79 1010.9
20260506104538 18 186 17.7 24.1 0.00 0.00 0.00 80 1010.9
20260506104038 18 178 16.1 22.5 0.00 0.00 0.00 80 1011.0
20260506103536 18 178 16.1 24.1 0.00 0.00 0.00 79 1010.9
20260506103036 18 194 14.5 24.1 0.00 0.00 0.00 79 1010.8
20260506102536 18 182 17.7 24.1 0.00 0.00 0.00 79 1010.8
20260506102035 18 180 17.7 24.1 0.00 0.00 0.00 80 1010.7